Time,TemperatureF,DewpointF,PressureIn,WindDirection,WindDirectionDegrees,WindSpeedMPH,WindSpeedGustMPH,Humidity,HourlyPrecipIn,Conditions,Clouds,dailyrainin,SoftwareType,DateUTC
2013-02-01 00:04:00,35.0,-99.9,29.64,West,265,11.0,31.0,-999,-99.99,,,-99.99,,2013-02-01 05:04:00,
2013-02-01 00:12:00,35.0,-99.9,29.63,West,270,17.0,28.0,-999,-99.99,,,-99.99,,2013-02-01 05:12:00,
2013-02-01 00:22:00,35.0,-99.9,29.64,West,270,13.0,29.0,-999,-99.99,,,-99.99,,2013-02-01 05:22:00,
2013-02-01 00:32:00,35.0,-99.9,29.64,West,265,11.0,24.0,-999,-99.99,,,-99.99,,2013-02-01 05:32:00,
2013-02-01 00:42:00,35.0,-99.9,29.65,West,268,9.0,21.0,-999,-99.99,,,-99.99,,2013-02-01 05:42:00,
2013-02-01 00:52:00,35.0,-99.9,29.65,West,281,15.0,29.0,-999,-99.99,,,-99.99,,2013-02-01 05:52:00,
2013-02-01 01:02:00,35.0,-99.9,29.65,WNW,283,12.0,24.0,-999,-99.99,,,-99.99,,2013-02-01 06:02:00,
2013-02-01 01:12:00,35.0,-99.9,29.66,West,267,19.0,26.0,-999,-99.99,,,-99.99,,2013-02-01 06:12:00,
2013-02-01 01:22:00,35.0,-99.9,29.66,West,262,12.0,23.0,-999,-99.99,,,-99.99,,2013-02-01 06:22:00,
2013-02-01 01:32:00,35.0,-99.9,29.66,West,273,15.0,27.0,-999,-99.99,,,-99.99,,2013-02-01 06:32:00,
2013-02-01 01:42:00,35.0,-99.9,29.67,WSW,257,15.0,26.0,-999,-99.99,,,-99.99,,2013-02-01 06:42:00,
2013-02-01 01:52:00,34.0,-99.9,29.67,West,278,15.0,23.0,-999,-99.99,,,-99.99,,2013-02-01 06:52:00,
2013-02-01 02:02:00,34.0,-99.9,29.67,West,269,14.0,25.0,-999,-99.99,,,-99.99,,2013-02-01 07:02:00,
2013-02-01 02:12:00,33.0,-99.9,29.68,West,277,15.0,27.0,-999,-99.99,,,-99.99,,2013-02-01 07:12:00,
2013-02-01 02:22:00,33.0,-99.9,29.68,West,278,12.0,23.0,-999,-99.99,,,-99.99,,2013-02-01 07:22:00,
2013-02-01 02:32:00,33.0,-99.9,29.69,West,278,10.0,27.0,-999,-99.99,,,-99.99,,2013-02-01 07:32:00,
2013-02-01 02:42:00,32.0,-99.9,29.69,WNW,286,12.0,24.0,-999,-99.99,,,-99.99,,2013-02-01 07:42:00,
2013-02-01 02:52:00,33.0,-99.9,29.69,West,267,13.0,20.0,-999,-99.99,,,-99.99,,2013-02-01 07:52:00,
2013-02-01 03:01:00,33.0,-99.9,29.69,West,265,11.0,28.0,-999,-99.99,,,-99.99,,2013-02-01 08:01:00,
2013-02-01 03:11:00,33.0,-99.9,29.70,West,273,16.0,25.0,-999,-99.99,,,-99.99,,2013-02-01 08:11:00,
2013-02-01 03:22:00,33.0,-99.9,29.70,West,263,16.0,26.0,-999,-99.99,,,-99.99,,2013-02-01 08:22:00,
2013-02-01 03:32:00,33.0,-99.9,29.70,West,271,13.0,26.0,-999,-99.99,,,-99.99,,2013-02-01 08:32:00,
2013-02-01 03:42:00,33.0,-99.9,29.70,West,267,14.0,23.0,-999,-99.99,,,-99.99,,2013-02-01 08:42:00,
2013-02-01 03:52:00,33.0,-99.9,29.71,West,271,13.0,23.0,-999,-99.99,,,-99.99,,2013-02-01 08:52:00,
2013-02-01 04:02:00,33.0,-99.9,29.71,West,277,15.0,27.0,-999,-99.99,,,-99.99,,2013-02-01 09:02:00,
2013-02-01 04:11:00,32.0,-99.9,29.71,West,269,15.0,26.0,-999,-99.99,,,-99.99,,2013-02-01 09:11:00,
2013-02-01 04:22:00,32.0,-99.9,29.72,West,275,12.0,24.0,-999,-99.99,,,-99.99,,2013-02-01 09:22:00,
2013-02-01 04:32:00,32.0,-99.9,29.73,West,276,14.0,25.0,-999,-99.99,,,-99.99,,2013-02-01 09:32:00,
2013-02-01 04:42:00,32.0,-99.9,29.73,West,267,13.0,23.0,-999,-99.99,,,-99.99,,2013-02-01 09:42:00,
2013-02-01 04:52:00,-999.0,-99.9,29.73,West,275,15.0,34.0,-999,-99.99,,,-99.99,,2013-02-01 09:52:00,
2013-02-01 05:01:00,-999.0,-99.9,29.73,West,271,14.0,24.0,-999,-99.99,,,-99.99,,2013-02-01 10:01:00,
2013-02-01 05:11:00,32.0,-99.9,29.74,WSW,258,15.0,27.0,-999,-99.99,,,-99.99,,2013-02-01 10:11:00,
2013-02-01 05:21:00,-999.0,-99.9,29.74,West,273,17.0,30.0,-999,-99.99,,,-99.99,,2013-02-01 10:21:00,
2013-02-01 05:32:00,-999.0,-99.9,29.74,West,280,14.0,28.0,-999,-99.99,,,-99.99,,2013-02-01 10:32:00,
2013-02-01 05:43:00,31.0,-99.9,29.74,West,272,19.0,30.0,-999,-99.99,,,-99.99,,2013-02-01 10:43:00,
2013-02-01 05:53:00,-999.0,-99.9,29.75,West,278,16.0,29.0,-999,-99.99,,,-99.99,,2013-02-01 10:53:00,
2013-02-01 06:02:00,-999.0,-99.9,29.75,West,274,13.0,26.0,-999,-99.99,,,-99.99,,2013-02-01 11:02:00,
2013-02-01 06:12:00,-999.0,-99.9,29.75,West,276,14.0,25.0,-999,-99.99,,,-99.99,,2013-02-01 11:12:00,
2013-02-01 06:22:00,-999.0,-99.9,29.75,West,277,15.0,31.0,-999,-99.99,,,-99.99,,2013-02-01 11:22:00,
2013-02-01 06:32:00,-999.0,-99.9,29.75,West,272,11.0,24.0,-999,-99.99,,,-99.99,,2013-02-01 11:32:00,
2013-02-01 06:42:00,31.0,-99.9,29.76,West,275,11.0,23.0,-999,-99.99,,,-99.99,,2013-02-01 11:42:00,
2013-02-01 06:53:00,-999.0,-99.9,29.76,West,275,14.0,28.0,-999,-99.99,,,-99.99,,2013-02-01 11:53:00,
2013-02-01 07:03:00,-999.0,-99.9,29.77,West,275,14.0,21.0,-999,-99.99,,,-99.99,,2013-02-01 12:03:00,
2013-02-01 07:12:00,31.0,-99.9,29.77,West,280,13.0,29.0,-999,-99.99,,,-99.99,,2013-02-01 12:12:00,
2013-02-01 07:23:00,-999.0,-99.9,29.77,West,275,10.0,19.0,-999,-99.99,,,-99.99,,2013-02-01 12:23:00,
2013-02-01 07:32:00,-999.0,-99.9,29.78,West,270,8.0,16.0,-999,-99.99,,,-99.99,,2013-02-01 12:32:00,
2013-02-01 07:42:00,-999.0,-99.9,29.79,West,267,9.0,20.0,-999,-99.99,,,-99.99,,2013-02-01 12:42:00,
2013-02-01 07:52:00,-999.0,-99.9,29.79,West,266,8.0,22.0,-999,-99.99,,,-99.99,,2013-02-01 12:52:00,
2013-02-01 08:02:00,-999.0,-99.9,29.79,WSW,248,10.0,23.0,-999,-99.99,,,-99.99,,2013-02-01 13:02:00,
2013-02-01 08:12:00,32.0,-99.9,29.80,West,264,14.0,28.0,-999,-99.99,,,-99.99,,2013-02-01 13:12:00,
2013-02-01 08:22:00,-999.0,-99.9,29.81,WSW,258,10.0,21.0,-999,-99.99,,,-99.99,,2013-02-01 13:22:00,
2013-02-01 08:33:00,33.0,-99.9,29.81,West,273,12.0,21.0,-999,-99.99,,,-99.99,,2013-02-01 13:33:00,
2013-02-01 08:43:00,33.0,-99.9,29.81,WSW,255,15.0,26.0,-999,-99.99,,,-99.99,,2013-02-01 13:43:00,
2013-02-01 08:53:00,33.0,-99.9,29.81,West,262,16.0,29.0,-999,-99.99,,,-99.99,,2013-02-01 13:53:00,
2013-02-01 09:04:00,33.0,-99.9,29.82,West,260,10.0,31.0,-999,-99.99,,,-99.99,,2013-02-01 14:04:00,
2013-02-01 09:12:00,33.0,-99.9,29.82,WSW,256,15.0,28.0,-999,-99.99,,,-99.99,,2013-02-01 14:12:00,
2013-02-01 09:22:00,33.0,-99.9,29.82,West,268,13.0,26.0,-999,-99.99,,,-99.99,,2013-02-01 14:22:00,
2013-02-01 09:33:00,34.0,-99.9,29.82,WSW,256,16.0,28.0,-999,-99.99,,,-99.99,,2013-02-01 14:33:00,
2013-02-01 09:42:00,34.0,-99.9,29.82,West,260,12.0,23.0,-999,-99.99,,,-99.99,,2013-02-01 14:42:00,
2013-02-01 09:53:00,34.0,-99.9,29.82,West,275,15.0,28.0,-999,-99.99,,,-99.99,,2013-02-01 14:53:00,
2013-02-01 10:03:00,34.0,-99.9,29.82,West,277,18.0,27.0,-999,-99.99,,,-99.99,,2013-02-01 15:03:00,
2013-02-01 10:12:00,33.0,-99.9,29.81,West,279,11.0,26.0,-999,-99.99,,,-99.99,,2013-02-01 15:12:00,
2013-02-01 10:22:00,33.0,-99.9,29.82,West,279,11.0,22.0,-999,-99.99,,,-99.99,,2013-02-01 15:22:00,
2013-02-01 10:33:00,33.0,-99.9,29.82,WNW,284,12.0,21.0,-999,-99.99,,,-99.99,,2013-02-01 15:33:00,
2013-02-01 10:42:00,33.0,-99.9,29.83,West,274,9.0,17.0,-999,-99.99,,,-99.99,,2013-02-01 15:42:00,
2013-02-01 10:52:00,33.0,-99.9,29.82,WNW,283,11.0,21.0,-999,-99.99,,,-99.99,,2013-02-01 15:52:00,
2013-02-01 11:03:00,33.0,-99.9,29.82,West,277,10.0,20.0,-999,-99.99,,,-99.99,,2013-02-01 16:03:00,
2013-02-01 11:12:00,33.0,-99.9,29.81,West,277,10.0,17.0,-999,-99.99,,,-99.99,,2013-02-01 16:12:00,
2013-02-01 11:22:00,33.0,-99.9,29.82,WNW,282,10.0,24.0,-999,-99.99,,,-99.99,,2013-02-01 16:22:00,
2013-02-01 11:33:00,33.0,-99.9,29.82,WNW,282,10.0,20.0,-999,-99.99,,,-99.99,,2013-02-01 16:33:00,
2013-02-01 11:43:00,33.0,-99.9,29.82,West,271,11.0,18.0,-999,-99.99,,,-99.99,,2013-02-01 16:43:00,
2013-02-01 11:53:00,33.0,-99.9,29.81,WNW,285,12.0,20.0,-999,-99.99,,,-99.99,,2013-02-01 16:53:00,
2013-02-01 12:03:00,33.0,-99.9,29.80,West,279,10.0,18.0,-999,-99.99,,,-99.99,,2013-02-01 17:03:00,
2013-02-01 12:12:00,33.0,-99.9,29.79,WNW,295,13.0,19.0,-999,-99.99,,,-99.99,,2013-02-01 17:12:00,
2013-02-01 12:22:00,33.0,-99.9,29.78,WNW,282,9.0,21.0,-999,-99.99,,,-99.99,,2013-02-01 17:22:00,
2013-02-01 12:32:00,33.0,-99.9,29.78,West,272,5.0,17.0,-999,-99.99,,,-99.99,,2013-02-01 17:32:00,
2013-02-01 12:42:00,33.0,-99.9,29.77,NW,310,11.0,17.0,-999,-99.99,,,-99.99,,2013-02-01 17:42:00,
2013-02-01 12:53:00,33.0,-99.9,29.78,WNW,298,8.0,15.0,-999,-99.99,,,-99.99,,2013-02-01 17:53:00,
2013-02-01 13:03:00,-999.0,-99.9,29.78,WNW,302,10.0,18.0,-999,-99.99,,,-99.99,,2013-02-01 18:03:00,
2013-02-01 13:13:00,-999.0,-99.9,29.77,NW,320,9.0,16.0,-999,-99.99,,,-99.99,,2013-02-01 18:13:00,
2013-02-01 13:23:00,-999.0,-99.9,29.77,WNW,292,7.0,15.0,-999,-99.99,,,-99.99,,2013-02-01 18:23:00,
2013-02-01 13:33:00,-999.0,-99.9,29.77,NW,312,8.0,16.0,-999,-99.99,,,-99.99,,2013-02-01 18:33:00,
2013-02-01 13:42:00,32.0,-99.9,29.77,NW,304,6.0,15.0,-999,-99.99,,,-99.99,,2013-02-01 18:42:00,
2013-02-01 13:53:00,-999.0,-99.9,29.77,NW,317,8.0,13.0,-999,-99.99,,,-99.99,,2013-02-01 18:53:00,
2013-02-01 14:03:00,-999.0,-99.9,29.76,NW,315,8.0,15.0,-999,-99.99,,,-99.99,,2013-02-01 19:03:00,
2013-02-01 14:12:00,31.0,-99.9,29.76,NW,318,10.0,14.0,-999,-99.99,,,-99.99,,2013-02-01 19:12:00,
2013-02-01 14:22:00,-999.0,-99.9,29.76,NW,317,6.0,11.0,-999,-99.99,,,-99.99,,2013-02-01 19:22:00,
2013-02-01 14:33:00,-999.0,-99.9,29.77,NW,310,8.0,13.0,-999,-99.99,,,-99.99,,2013-02-01 19:33:00,
2013-02-01 14:42:00,-999.0,-99.9,29.78,WNW,303,8.0,14.0,-999,-99.99,,,-99.99,,2013-02-01 19:42:00,
2013-02-01 14:52:00,-999.0,-99.9,29.78,WNW,297,8.0,13.0,-999,-99.99,,,-99.99,,2013-02-01 19:52:00,
2013-02-01 15:02:00,-999.0,-99.9,29.77,NW,315,8.0,12.0,-999,-99.99,,,-99.99,,2013-02-01 20:02:00,
2013-02-01 15:12:00,32.0,-99.9,29.78,NW,311,7.0,13.0,-999,-99.99,,,-99.99,,2013-02-01 20:12:00,
2013-02-01 15:22:00,-999.0,-99.9,29.78,NNW,337,10.0,14.0,-999,-99.99,,,-99.99,,2013-02-01 20:22:00,
2013-02-01 15:32:00,-999.0,-99.9,29.77,NNW,334,10.0,17.0,-999,-99.99,,,-99.99,,2013-02-01 20:32:00,
2013-02-01 15:42:00,32.0,-99.9,29.78,NNW,328,8.0,12.0,-999,-99.99,,,-99.99,,2013-02-01 20:42:00,
2013-02-01 15:52:00,-999.0,-99.9,29.79,NW,312,9.0,12.0,-999,-99.99,,,-99.99,,2013-02-01 20:52:00,
2013-02-01 16:02:00,-999.0,-99.9,29.79,NW,307,11.0,14.0,-999,-99.99,,,-99.99,,2013-02-01 21:02:00,
2013-02-01 16:12:00,32.0,-99.9,29.80,NW,312,8.0,17.0,-999,-99.99,,,-99.99,,2013-02-01 21:12:00,
2013-02-01 16:22:00,-999.0,-99.9,29.81,NW,308,9.0,17.0,-999,-99.99,,,-99.99,,2013-02-01 21:22:00,
2013-02-01 16:32:00,-999.0,-99.9,29.81,NW,313,8.0,14.0,-999,-99.99,,,-99.99,,2013-02-01 21:32:00,
2013-02-01 16:42:00,31.0,-99.9,29.81,NW,319,6.0,14.0,-999,-99.99,,,-99.99,,2013-02-01 21:42:00,
2013-02-01 16:53:00,-999.0,-99.9,29.82,WNW,289,7.0,11.0,-999,-99.99,,,-99.99,,2013-02-01 21:53:00,
2013-02-01 17:03:00,-999.0,-99.9,29.83,WNW,303,9.0,16.0,-999,-99.99,,,-99.99,,2013-02-01 22:03:00,
2013-02-01 17:11:00,-999.0,-99.9,29.84,WNW,295,8.0,11.0,-999,-99.99,,,-99.99,,2013-02-01 22:11:00,
2013-02-01 17:22:00,-999.0,-99.9,29.84,NW,304,9.0,13.0,-999,-99.99,,,-99.99,,2013-02-01 22:22:00,
2013-02-01 17:32:00,-999.0,-99.9,29.85,NW,307,8.0,16.0,-999,-99.99,,,-99.99,,2013-02-01 22:32:00,
2013-02-01 17:42:00,31.0,-99.9,29.85,NW,310,9.0,13.0,-999,-99.99,,,-99.99,,2013-02-01 22:42:00,
2013-02-01 17:52:00,-999.0,-99.9,29.86,NW,308,10.0,19.0,-999,-99.99,,,-99.99,,2013-02-01 22:52:00,
2013-02-01 18:02:00,-999.0,-99.9,29.87,NW,313,11.0,16.0,-999,-99.99,,,-99.99,,2013-02-01 23:02:00,
2013-02-01 18:11:00,31.0,-99.9,29.88,WNW,295,10.0,17.0,-999,-99.99,,,-99.99,,2013-02-01 23:11:00,
2013-02-01 18:22:00,-999.0,-99.9,29.88,WNW,300,11.0,17.0,-999,-99.99,,,-99.99,,2013-02-01 23:22:00,
2013-02-01 18:32:00,-999.0,-99.9,29.89,NW,313,11.0,17.0,-999,-99.99,,,-99.99,,2013-02-01 23:32:00,
2013-02-01 18:42:00,31.0,-99.9,29.90,WNW,296,9.0,21.0,-999,-99.99,,,-99.99,,2013-02-01 23:42:00,
2013-02-01 18:52:00,-999.0,-99.9,29.91,WNW,297,13.0,21.0,-999,-99.99,,,-99.99,,2013-02-01 23:52:00,
2013-02-01 19:02:00,-999.0,-99.9,29.92,NW,325,12.0,23.0,-999,-99.99,,,-99.99,,2013-02-02 00:02:00,
2013-02-01 19:11:00,31.0,-99.9,29.92,NW,307,15.0,21.0,-999,-99.99,,,-99.99,,2013-02-02 00:11:00,
2013-02-01 19:22:00,-999.0,-99.9,29.93,NW,310,14.0,24.0,-999,-99.99,,,-99.99,,2013-02-02 00:22:00,
2013-02-01 19:32:00,-999.0,-99.9,29.94,NW,310,14.0,20.0,-999,-99.99,,,-99.99,,2013-02-02 00:32:00,
2013-02-01 19:42:00,30.0,-99.9,29.94,NW,309,11.0,26.0,-999,-99.99,,,-99.99,,2013-02-02 00:42:00,
2013-02-01 19:52:00,-999.0,-99.9,29.95,NW,309,14.0,20.0,-999,-99.99,,,-99.99,,2013-02-02 00:52:00,
2013-02-01 20:03:00,-999.0,-99.9,29.96,NW,310,12.0,20.0,-999,-99.99,,,-99.99,,2013-02-02 01:03:00,
2013-02-01 20:11:00,30.0,-99.9,29.96,NW,317,12.0,21.0,-999,-99.99,,,-99.99,,2013-02-02 01:11:00,
2013-02-01 20:22:00,-999.0,-99.9,29.97,NW,315,13.0,21.0,-999,-99.99,,,-99.99,,2013-02-02 01:22:00,
2013-02-01 20:32:00,-999.0,-99.9,29.97,NW,312,11.0,20.0,-999,-99.99,,,-99.99,,2013-02-02 01:32:00,
2013-02-01 20:42:00,29.0,-99.9,29.98,NW,316,11.0,23.0,-999,-99.99,,,-99.99,,2013-02-02 01:42:00,
2013-02-01 20:52:00,-999.0,-99.9,29.98,NW,315,14.0,24.0,-999,-99.99,,,-99.99,,2013-02-02 01:52:00,
2013-02-01 21:01:00,-999.0,-99.9,29.99,NW,310,11.0,23.0,-999,-99.99,,,-99.99,,2013-02-02 02:01:00,
2013-02-01 21:11:00,29.0,-99.9,29.99,NW,305,17.0,25.0,-999,-99.99,,,-99.99,,2013-02-02 02:11:00,
2013-02-01 21:22:00,-999.0,-99.9,30.00,NW,314,16.0,23.0,-999,-99.99,,,-99.99,,2013-02-02 02:22:00,
2013-02-01 21:32:00,-999.0,-99.9,30.00,NW,313,15.0,24.0,-999,-99.99,,,-99.99,,2013-02-02 02:32:00,
2013-02-01 21:42:00,-999.0,-99.9,30.01,NW,311,19.0,25.0,-999,-99.99,,,-99.99,,2013-02-02 02:42:00,
2013-02-01 21:52:00,-999.0,-99.9,30.01,NW,305,12.0,24.0,-999,-99.99,,,-99.99,,2013-02-02 02:52:00,
2013-02-01 22:02:00,-999.0,-99.9,30.02,NW,305,14.0,25.0,-999,-99.99,,,-99.99,,2013-02-02 03:02:00,
2013-02-01 22:11:00,28.0,-99.9,30.02,NW,307,15.0,23.0,-999,-99.99,,,-99.99,,2013-02-02 03:11:00,
2013-02-01 22:22:00,-999.0,-99.9,30.03,NW,312,12.0,22.0,-999,-99.99,,,-99.99,,2013-02-02 03:22:00,
2013-02-01 22:32:00,-999.0,-99.9,30.03,NW,308,17.0,25.0,-999,-99.99,,,-99.99,,2013-02-02 03:32:00,
2013-02-01 22:42:00,-999.0,-99.9,30.04,NW,310,14.0,21.0,-999,-99.99,,,-99.99,,2013-02-02 03:42:00,
2013-02-01 22:52:00,-999.0,-99.9,30.04,NW,312,12.0,23.0,-999,-99.99,,,-99.99,,2013-02-02 03:52:00,
2013-02-01 23:02:00,-999.0,-99.9,30.05,NW,308,14.0,25.0,-999,-99.99,,,-99.99,,2013-02-02 04:02:00,
2013-02-01 23:11:00,27.0,-99.9,30.05,NW,316,13.0,19.0,-999,-99.99,,,-99.99,,2013-02-02 04:11:00,
2013-02-01 23:22:00,-999.0,-99.9,30.06,NW,317,15.0,21.0,-999,-99.99,,,-99.99,,2013-02-02 04:22:00,
2013-02-01 23:33:00,-999.0,-99.9,30.06,NW,312,13.0,18.0,-999,-99.99,,,-99.99,,2013-02-02 04:33:00,
2013-02-01 23:42:00,27.0,-99.9,30.07,NW,313,13.0,22.0,-999,-99.99,,,-99.99,,2013-02-02 04:42:00,
2013-02-01 23:52:00,-999.0,-99.9,30.08,WNW,303,14.0,20.0,-999,-99.99,,,-99.99,,2013-02-02 04:52:00,